Погода в Аяччо

Франция     41°55′08″N   8°44′09″E
темп.,
°C
ветер,
м/с
пор.,
м/с
влажн.,
%
обл.,
%
осадки,
мм/ч
давл.,
гПа
погр.,
м
9 марта, вт
вт901:00+11в0180100 0.3 101151
04:00+10юз1188100 0.1 100972
07:00+10всв1285100 0.9 101091
10:00+11юз228399 0.6 1011245
13:00+10юз339099 1.3 1011357
16:00+11ююз348898 1.1 1011486
19:00+10юв228998 1.6 1011155
22:00+8в228949 0.3 101358
10 марта, ср
ср1001:00+7в238725 0.4 101354
04:00+7в33820 0.0 101366
07:00+6всв22810 0.0 101453
10:00+11зюз11670 0.0 1017392
13:00+13юз32619 0.3 1018834
16:00+13ююз226442 0.4 1018738
19:00+9ююв118224 0.4 1020137
22:00+7в228712 0.0 102255
11 марта, чт
чт1101:00+7в22836 0.0 102245
04:00+6в33850 0.0 102253
07:00+6в33853 0.0 102362
10:00+13ю125722 0.0 1023637
13:00+13ююз346542 0.0 1023941
16:00+13юз336790 0.1 10221007
19:00+10ююв118692 0.1 1022160
22:00+10в3383100 0.1 102297
12 марта, пт
пт1201:00+11в3477100 0.1 1021159
04:00+11в2381100 0.1 1019132
07:00+10в3390100 0.3 101995
10:00+13ююв2381100 0.3 1019455
13:00+13ююз3584100 0.8 1018651
16:00+13ююз2486100 0.8 1017599
19:00+12ююв1194100 1.8 101676
22:00+10зсз129454 0.6 1016172
13 марта, сб
сб1301:00+9в229243 0.7 101747
04:00+9всв33880 0.0 101651
07:00+8всв23820 0.0 101649
10:00+12зсз12620 0.0 1017716
13:00+13з33550 0.0 1017867
16:00+12з33590 0.0 1015700
19:00+9зсз12760 0.0 1015274
22:00+8в327758 0.0 1016144